Temp
-10 -9 -9 -9 -10 -10 -10 -10 -10 -10 -11 -11 -11 -11 -11 -11 -11 -12 -12 -12 -12 -12 -12 -12 -12 -12 -12 -12 -12 -12 -12 -12 -12 -12 -12 -12 -12 -12 -13 -13 -13 -13 -13 -13 -13 -12 -12 -12 -11
-10 -10 -10 -10 -10 -10 -10 -10 -10 -11 -11 -11 -11 -11 -11 -12 -11 -11 -12 -12 -11 -11 -12 -12 -12 -12 -12 -12 -12 -12 -12 -12 -12 -12 -12 -13 -13 -13 -13 -13 -13 -13 -13 -13 -13 -13 -12 -12 -12
-10 -10 -10 -10 -10 -11 -11 -10 -10 -11 -11 -11 -11 -11 -11 -12 -11 -11 -11 -11 -11 -12 -12 -12 -12 -12 -12 -12 -12 -12 -12 -12 -12 -13 -13 -13 -13 -13 -13 -13 -13 -13 -13 -13 -13 -13 -13 -13 -12
-10 -10 -10 -11 -11 -11 -11 -11 -11 -11 -11 -11 -11 -11 -11 -11 -11 -11 -11 -11 -11 -11 -11 -12 -12 -12 -12 -12 -12 -12 -12 -13 -13 -12 -13 -13 -13 -13 -13 -13 -14 -14 -13 -14 -14 -14 -14 -14 -13
-10 -11 -11 -11 -11 -11 -11 -11 -11 -11 -11 -11 -11 -11 -11 -11 -11 -11 -11 -12 -12 -11 -11 -12 -12 -12 -12 -12 -12 -12 -13 -13 -13 -13 -13 -13 -13 -13 -13 -13 -13 -13 -14 -14 -14 -14 -14 -14 -14
-11 -11 -11 -11 -11 -11 -11 -11 -11 -11 -11 -11 -11 -12 -11 -11 -11 -11 -12 -12 -12 -12 -12 -12 -12 -12 -12 -12 -13 -13 -13 -13 -13 -13 -13 -13 -13 -13 -13 -13 -14 -14 -14 -15 -15 -15 -14 -15 -15
-11 -11 -11 -11 -11 -11 -11 -11 -11 -11 -11 -11 -12 -12 -12 -12 -12 -11 -12 -12 -12 -12 -12 -12 -12 -12 -12 -13 -13 -13 -13 -13 -13 -13 -13 -13 -13 -13 -14 -14 -15 -15 -16 -16 -16 -15 -15 -15 -15
-11 -11 -11 -11 -11 -11 -12 -12 -12 -12 -12 -12 -12 -12 -12 -12 -12 -12 -12 -12 -12 -12 -12 -12 -12 -12 -13 -13 -13 -13 -13 -13 -13 -13 -13 -13 -13 -14 -14 -15 -16 -16 -17 -17 -16 -16 -15 -15 -15
-11 -12 -11 -11 -11 -11 -11 -12 -12 -12 -12 -12 -12 -12 -12 -12 -12 -12 -12 -12 -12 -12 -12 -12 -13 -13 -13 -13 -13 -13 -13 -13 -13 -14 -14 -13 -14 -14 -15 -15 -16 -17 -18 -18 -18 -17 -16 -15 -14
-11 -12 -11 -12 -11 -11 -11 -11 -11 -12 -12 -12 -12 -12 -12 -12 -12 -12 -12 -12 -12 -12 -13 -13 -13 -13 -13 -13 -14 -14 -14 -13 -13 -14 -14 -14 -15 -15 -15 -16 -18 -19 -19 -19 -19 -18 -17 -16 -15
-12 -12 -11 -12 -12 -12 -12 -12 -12 -12 -12 -12 -12 -12 -12 -12 -12 -12 -12 -12 -12 -13 -13 -13 -13 -13 -13 -14 -14 -14 -14 -14 -14 -14 -14 -15 -15 -16 -17 -18 -19 -20 -20 -20 -20 -19 -18 -18 -17
-11 -12 -12 -12 -12 -12 -12 -12 -12 -12 -12 -12 -12 -12 -12 -13 -13 -13 -13 -13 -13 -13 -13 -13 -13 -14 -14 -14 -14 -14 -14 -14 -14 -14 -15 -15 -16 -17 -18 -19 -20 -21 -21 -22 -21 -21 -20 -19 -19
-11 -12 -12 -12 -12 -12 -12 -12 -12 -12 -12 -12 -13 -13 -13 -13 -13 -13 -13 -13 -13 -13 -13 -14 -14 -14 -14 -14 -14 -14 -14 -14 -14 -14 -15 -16 -17 -18 -19 -20 -21 -22 -23 -24 -24 -23 -23 -21 -20
-12 -12 -12 -12 -12 -12 -12 -12 -13 -13 -13 -13 -13 -13 -13 -13 -13 -13 -13 -13 -13 -13 -14 -14 -14 -14 -14 -14 -14 -14 -15 -14 -15 -15 -16 -17 -18 -20 -20 -21 -23 -24 -25 -25 -25 -24 -24 -23 -22
-12 -12 -12 -12 -12 -12 -12 -13 -13 -13 -13 -13 -13 -13 -13 -13 -13 -13 -13 -13 -14 -14 -14 -14 -14 -14 -14 -14 -15 -15 -15 -15 -15 -16 -17 -18 -19 -21 -22 -23 -25 -25 -25 -25 -25 -25 -25 -23 -23
-12 -11 -12 -12 -12 -12 -12 -13 -13 -13 -13 -13 -13 -14 -13 -13 -13 -13 -14 -14 -14 -14 -14 -15 -14 -14 -14 -15 -15 -15 -15 -15 -16 -16 -18 -19 -21 -21 -22 -24 -25 -26 -26 -25 -25 -25 -24 -24 -24
-12 -12 -12 -12 -12 -12 -12 -13 -13 -13 -13 -13 -13 -14 -14 -14 -14 -14 -14 -14 -14 -15 -15 -15 -15 -15 -15 -15 -15 -15 -15 -16 -16 -17 -19 -20 -21 -22 -24 -25 -25 -25 -26 -26 -26 -26 -25 -24 -24
-12 -12 -12 -12 -12 -12 -12 -13 -13 -13 -13 -13 -14 -14 -14 -14 -14 -14 -14 -14 -15 -15 -15 -15 -15 -15 -15 -16 -16 -16 -16 -16 -18 -18 -20 -21 -22 -23 -25 -26 -26 -26 -26 -26 -26 -26 -25 -24 -24
-12 -12 -12 -13 -13 -13 -13 -13 -13 -13 -13 -14 -13 -14 -14 -14 -14 -14 -14 -15 -15 -15 -15 -15 -15 -15 -15 -16 -16 -16 -17 -18 -18 -19 -20 -21 -22 -23 -25 -26 -26 -27 -26 -26 -26 -26 -26 -25 -24
-13 -13 -13 -13 -13 -13 -13 -13 -13 -13 -13 -13 -14 -14 -14 -14 -14 -14 -15 -15 -15 -15 -15 -15 -15 -15 -16 -16 -16 -16 -17 -18 -18 -20 -21 -22 -22 -24 -26 -26 -26 -27 -27 -27 -27 -26 -27 -25 -24
-13 -13 -13 -13 -13 -13 -13 -12 -13 -14 -14 -14 -14 -14 -14 -14 -14 -15 -15 -15 -15 -15 -16 -16 -16 -16 -16 -17 -17 -17 -18 -19 -20 -22 -22 -22 -23 -24 -26 -27 -27 -27 -27 -26 -27 -27 -27 -27 -26
-12 -12 -13 -13 -13 -13 -13 -12 -13 -14 -14 -14 -14 -14 -14 -15 -15 -15 -15 -15 -15 -15 -16 -16 -16 -16 -16 -17 -17 -18 -19 -20 -20 -21 -22 -23 -23 -25 -26 -27 -27 -27 -26 -26 -27 -27 -27 -27 -27
-12 -12 -12 -13 -13 -12 -13 -13 -12 -14 -14 -14 -14 -15 -15 -15 -15 -15 -15 -15 -15 -16 -16 -16 -16 -16 -17 -17 -17 -18 -19 -20 -21 -22 -23 -23 -24 -26 -27 -27 -27 -27 -26 -27 -27 -27 -28 -28 -28
-12 -12 -12 -13 -12 -12 -13 -13 -13 -13 -13 -14 -14 -14 -14 -14 -14 -15 -15 -15 -15 -16 -16 -16 -16 -16 -17 -17 -18 -19 -20 -20 -22 -22 -23 -23 -24 -26 -27 -27 -27 -27 -27 -27 -27 -28 -28 -28 -29
-12 -12 -12 -12 -12 -12 -12 -12 -13 -13 -13 -14 -14 -14 -14 -14 -14 -15 -15 -15 -15 -15 -15 -15 -16 -16 -17 -18 -18 -19 -20 -21 -22 -23 -23 -23 -25 -26 -27 -27 -27 -27 -27 -27 -28 -28 -28 -29 -29
-12 -12 -12 -12 -12 -12 -12 -12 -13 -12 -14 -14 -14 -14 -14 -14 -14 -14 -15 -15 -16 -15 -15 -15 -16 -17 -17 -18 -19 -19 -20 -21 -22 -23 -23 -23 -25 -26 -27 -27 -27 -27 -27 -27 -28 -28 -28 -29 -29
-12 -12 -12 -12 -12 -12 -12 -12 -12 -13 -14 -14 -15 -14 -14 -14 -13 -14 -14 -15 -16 -16 -16 -16 -16 -17 -17 -18 -19 -20 -21 -21 -23 -23 -23 -24 -25 -26 -27 -28 -27 -27 -27 -28 -28 -29 -29 -29 -29
-13 -13 -12 -12 -12 -12 -11 -11 -12 -13 -13 -14 -14 -14 -13 -13 -13 -14 -15 -15 -15 -15 -16 -16 -17 -17 -17 -18 -19 -20 -21 -22 -23 -23 -23 -24 -25 -26 -27 -27 -27 -27 -27 -27 -28 -28 -29 -30 -30
-13 -12 -12 -12 -12 -12 -11 -11 -14 -13 -13 -14 -13 -13 -13 -13 -14 -14 -15 -15 -15 -15 -16 -16 -17 -18 -18 -19 -20 -20 -21 -22 -23 -23 -24 -24 -25 -26 -27 -27 -28 -27 -27 -27 -28 -29 -29 -30 -31
-13 -13 -13 -13 -13 -12 -11 -11 -14 -14 -14 -14 -13 -13 -13 -14 -14 -15 -15 -15 -15 -15 -16 -17 -17 -18 -18 -19 -20 -20 -21 -22 -23 -24 -24 -24 -25 -26 -27 -27 -28 -28 -28 -27 -28 -29 -29 -30 -30
Height
5835 5835 5834 5834 5836 5833 5830 5829 5826 5825 5823 5822 5821 5820 5818 5816 5816 5816 5811 5810 5809 5807 5805 5804 5801 5799 5797 5795 5793 5790 5788 5785 5783 5781 5778 5775 5771 5769 5765 5761 5758 5755 5751 5748 5744 5741 5738 5737 5737
5834 5834 5834 5832 5833 5830 5829 5827 5827 5825 5823 5821 5820 5819 5818 5817 5816 5813 5811 5810 5809 5807 5805 5803 5801 5799 5797 5795 5793 5789 5787 5783 5780 5777 5774 5770 5767 5763 5759 5756 5752 5748 5745 5742 5738 5735 5732 5729 5727
5834 5833 5833 5831 5831 5830 5828 5827 5826 5824 5822 5821 5820 5819 5818 5817 5815 5813 5812 5810 5808 5806 5804 5802 5799 5798 5796 5794 5792 5788 5785 5782 5778 5774 5769 5765 5762 5758 5754 5750 5746 5742 5737 5733 5730 5726 5722 5720 5718
5833 5832 5833 5831 5830 5830 5828 5826 5825 5823 5822 5820 5819 5818 5818 5816 5814 5813 5811 5809 5807 5805 5803 5801 5799 5797 5795 5792 5790 5787 5783 5778 5773 5769 5765 5760 5755 5751 5746 5741 5736 5731 5727 5722 5718 5715 5712 5710 5708
5832 5830 5831 5830 5829 5828 5827 5826 5824 5823 5821 5820 5819 5818 5816 5815 5814 5811 5809 5807 5806 5803 5801 5798 5796 5793 5791 5789 5786 5783 5779 5774 5768 5763 5758 5753 5747 5742 5735 5729 5727 5720 5715 5711 5706 5702 5699 5698 5696
5830 5829 5829 5828 5828 5827 5825 5824 5823 5822 5821 5819 5818 5816 5815 5814 5812 5810 5808 5807 5804 5802 5799 5795 5793 5791 5788 5786 5781 5778 5773 5768 5762 5756 5750 5743 5737 5730 5724 5717 5710 5704 5699 5695 5690 5687 5684 5682 5682
5827 5826 5826 5826 5826 5825 5824 5822 5821 5819 5819 5818 5816 5815 5814 5812 5811 5809 5807 5805 5802 5799 5796 5794 5792 5789 5785 5781 5776 5772 5767 5761 5755 5748 5742 5735 5727 5720 5711 5702 5692 5686 5681 5676 5670 5667 5664 5664 5665
5826 5825 5824 5823 5823 5823 5822 5821 5819 5817 5816 5815 5814 5813 5812 5810 5808 5807 5805 5803 5800 5797 5794 5791 5788 5784 5780 5776 5771 5767 5761 5754 5747 5739 5731 5724 5716 5706 5695 5683 5674 5666 5658 5653 5648 5645 5643 5643 5645
5824 5824 5822 5822 5821 5820 5819 5818 5818 5817 5815 5813 5812 5810 5809 5808 5806 5804 5802 5799 5797 5794 5791 5787 5783 5779 5775 5771 5766 5761 5753 5746 5738 5731 5724 5714 5704 5694 5682 5668 5657 5644 5634 5625 5621 5619 5618 5619 5623
5822 5822 5820 5820 5820 5819 5817 5815 5815 5815 5813 5811 5809 5808 5806 5805 5803 5800 5798 5795 5792 5789 5786 5782 5779 5775 5770 5765 5760 5754 5747 5740 5732 5725 5714 5703 5690 5678 5663 5649 5635 5621 5608 5600 5594 5592 5591 5594 5600
5818 5819 5818 5817 5817 5816 5814 5813 5812 5812 5811 5809 5807 5805 5803 5801 5799 5796 5794 5791 5788 5784 5781 5777 5774 5769 5764 5759 5753 5747 5739 5731 5723 5714 5703 5690 5676 5661 5647 5633 5616 5601 5588 5577 5571 5567 5567 5571 5575
5815 5815 5815 5815 5813 5812 5811 5810 5809 5807 5806 5805 5803 5801 5800 5798 5796 5793 5790 5787 5784 5781 5777 5772 5768 5763 5758 5753 5746 5738 5730 5722 5715 5704 5691 5677 5661 5647 5630 5612 5595 5579 5566 5556 5549 5547 5545 5549 5553
5811 5811 5811 5811 5810 5809 5808 5806 5805 5804 5802 5801 5799 5797 5796 5794 5792 5789 5787 5783 5780 5776 5770 5766 5762 5757 5751 5745 5737 5729 5721 5713 5704 5691 5677 5662 5645 5629 5612 5592 5575 5560 5548 5540 5534 5532 5530 5531 5535
5807 5807 5807 5807 5806 5806 5805 5803 5801 5799 5798 5796 5794 5793 5791 5790 5788 5785 5782 5779 5775 5770 5766 5761 5756 5750 5745 5737 5730 5722 5713 5704 5693 5679 5664 5646 5631 5613 5593 5575 5559 5547 5538 5530 5524 5520 5519 5518 5521
5803 5803 5803 5803 5802 5801 5800 5800 5796 5795 5793 5792 5790 5788 5787 5786 5783 5780 5777 5774 5769 5764 5760 5755 5750 5744 5737 5730 5722 5713 5704 5696 5683 5667 5651 5634 5616 5597 5578 5561 5547 5538 5531 5523 5517 5512 5508 5507 5510
5799 5799 5798 5798 5797 5796 5796 5796 5793 5792 5790 5788 5786 5784 5783 5781 5777 5775 5772 5768 5764 5758 5754 5750 5744 5737 5730 5722 5714 5705 5696 5686 5672 5656 5639 5622 5605 5587 5568 5551 5539 5531 5523 5516 5509 5503 5499 5498 5499
5794 5795 5793 5793 5791 5791 5790 5790 5788 5787 5785 5783 5780 5779 5777 5774 5772 5770 5766 5763 5759 5754 5749 5744 5737 5729 5723 5715 5705 5697 5689 5675 5662 5646 5629 5612 5594 5576 5557 5544 5533 5523 5516 5508 5501 5494 5489 5489 5490
5789 5789 5788 5787 5787 5784 5784 5784 5784 5782 5780 5777 5775 5773 5771 5769 5767 5765 5762 5757 5754 5748 5744 5738 5731 5724 5716 5707 5698 5690 5678 5666 5652 5637 5621 5604 5587 5567 5552 5539 5528 5518 5510 5503 5495 5488 5481 5479 5481
5782 5782 5782 5780 5779 5779 5778 5779 5777 5777 5776 5771 5769 5767 5766 5764 5762 5759 5756 5752 5748 5743 5737 5731 5725 5718 5709 5700 5690 5680 5669 5656 5643 5630 5613 5595 5578 5562 5546 5534 5523 5515 5506 5498 5490 5482 5475 5470 5472
5775 5775 5775 5774 5772 5772 5771 5774 5773 5770 5770 5767 5765 5762 5760 5758 5756 5753 5750 5746 5742 5737 5731 5725 5719 5711 5703 5695 5685 5675 5663 5651 5639 5622 5606 5589 5573 5556 5542 5530 5518 5511 5502 5493 5485 5476 5470 5463 5464
5769 5767 5766 5766 5765 5764 5764 5768 5767 5765 5764 5761 5759 5756 5754 5752 5750 5747 5744 5740 5736 5731 5726 5720 5712 5705 5696 5687 5678 5667 5656 5642 5627 5614 5601 5586 5570 5551 5536 5524 5515 5505 5497 5489 5481 5473 5465 5459 5457
5765 5763 5759 5758 5758 5758 5757 5758 5761 5760 5757 5755 5750 5749 5748 5746 5744 5741 5738 5735 5731 5726 5719 5713 5706 5699 5690 5681 5672 5661 5650 5639 5626 5611 5596 5580 5564 5548 5534 5521 5510 5501 5493 5486 5478 5470 5463 5456 5454
5761 5757 5755 5752 5751 5752 5754 5752 5756 5754 5751 5746 5745 5743 5742 5740 5738 5735 5732 5728 5724 5719 5713 5706 5699 5691 5683 5674 5665 5655 5645 5633 5619 5604 5589 5574 5559 5545 5532 5520 5508 5499 5490 5483 5476 5469 5461 5455 5451
5754 5752 5749 5747 5745 5746 5749 5749 5752 5747 5743 5740 5738 5737 5736 5734 5732 5729 5725 5722 5718 5713 5707 5700 5693 5685 5677 5669 5660 5650 5639 5627 5614 5601 5586 5572 5557 5542 5530 5518 5507 5497 5488 5480 5474 5467 5461 5454 5450
5748 5747 5743 5741 5738 5738 5742 5744 5746 5742 5736 5733 5731 5731 5729 5728 5725 5721 5718 5716 5712 5707 5701 5694 5687 5679 5671 5663 5654 5645 5634 5622 5610 5598 5585 5571 5555 5541 5529 5518 5506 5496 5486 5479 5471 5464 5458 5453 5448
5741 5742 5739 5732 5733 5730 5734 5737 5741 5734 5729 5727 5724 5723 5721 5719 5716 5713 5712 5709 5705 5700 5694 5687 5681 5674 5665 5657 5648 5639 5629 5618 5606 5594 5581 5567 5554 5541 5527 5516 5506 5495 5484 5475 5467 5460 5453 5448 5444
5735 5735 5734 5728 5725 5722 5728 5732 5735 5727 5722 5720 5717 5715 5713 5711 5708 5706 5705 5702 5698 5693 5687 5680 5674 5667 5660 5652 5643 5634 5624 5613 5601 5589 5577 5565 5551 5537 5525 5514 5503 5492 5482 5472 5463 5454 5446 5441 5438
5725 5728 5726 5725 5719 5717 5720 5724 5726 5722 5717 5713 5711 5708 5706 5704 5702 5701 5698 5695 5691 5686 5679 5673 5667 5660 5654 5645 5637 5629 5619 5608 5597 5585 5574 5562 5548 5534 5522 5511 5501 5491 5480 5469 5459 5448 5435 5431 5432
5717 5717 5718 5716 5715 5713 5710 5721 5719 5716 5713 5708 5705 5702 5700 5700 5697 5694 5691 5688 5684 5679 5673 5666 5660 5653 5646 5639 5632 5625 5615 5604 5593 5583 5572 5559 5547 5533 5521 5510 5499 5490 5480 5468 5457 5445 5434 5429 5428
5708 5709 5709 5706 5706 5705 5707 5716 5708 5708 5705 5700 5698 5696 5695 5693 5690 5687 5685 5681 5677 5672 5665 5659 5653 5646 5640 5633 5627 5620 5610 5600 5590 5579 5568 5557 5544 5532 5520 5508 5497 5488 5479 5468 5456 5446 5436 5430 5429
Wind_Speed
4 4 1 1 3 6 8 9 10 12 12 13 13 15 16 19 18 17 20 22 21 22 23 22 23 22 20 23 25 25 27 31 33 38 39 37 38 42 41 37 33 33 34 36 35 34 32 34 36
6 4 2 0 2 2 5 8 8 9 10 12 13 14 15 15 16 18 20 21 22 22 22 23 23 19 23 25 25 27 30 34 35 41 39 39 40 42 46 45 36 35 36 41 40 37 35 36 36
8 7 5 1 1 1 5 8 8 7 9 10 12 14 14 14 15 17 19 20 21 22 24 22 21 17 20 26 30 32 35 37 39 44 43 44 44 50 50 52 48 43 41 42 44 44 39 37 38
7 6 8 5 3 2 6 7 8 9 8 9 10 10 12 12 14 17 15 17 20 20 21 21 20 18 22 31 32 34 37 42 43 49 48 47 48 51 58 59 58 55 51 48 47 49 50 42 40
8 6 6 5 5 5 7 8 8 8 9 8 8 9 10 12 15 17 15 17 18 20 22 22 22 22 26 32 34 38 39 45 46 50 50 50 53 60 65 67 61 65 63 58 54 52 52 52 45
10 9 7 5 5 6 9 9 9 9 8 9 9 9 10 10 14 17 17 19 19 20 22 23 23 24 31 33 35 39 43 48 49 52 52 54 61 65 67 68 69 71 71 70 64 60 56 55 52
10 9 6 5 4 6 9 10 10 12 11 10 10 10 11 12 14 16 18 19 22 22 24 23 24 28 33 36 38 40 44 49 53 52 53 58 64 69 73 76 80 79 74 74 73 63 62 60 58
10 8 6 5 4 7 9 9 11 13 13 14 12 12 12 14 16 17 19 19 23 25 25 25 28 32 35 38 40 45 47 51 54 53 59 67 68 72 77 82 86 84 83 75 64 61 64 62 59
11 9 8 8 7 10 11 11 13 13 14 15 15 15 15 16 17 18 20 21 24 27 28 30 33 35 38 41 43 47 50 53 56 56 65 69 72 77 81 89 92 89 79 70 62 61 62 61 61
12 11 11 11 11 12 14 14 15 14 15 16 17 17 17 19 19 20 21 23 25 28 30 33 35 37 40 43 47 49 52 57 55 58 67 71 78 82 88 93 92 80 71 65 58 54 56 61 61
15 14 14 14 13 15 16 17 17 16 16 17 18 19 20 20 22 22 23 26 28 31 32 35 38 40 43 46 50 53 53 58 58 62 68 77 86 91 93 93 83 74 70 63 56 50 53 56 59
18 17 17 17 17 18 19 20 20 20 19 20 20 22 22 22 23 24 25 28 30 32 34 37 39 42 45 49 53 56 56 57 59 67 71 79 90 92 94 90 79 71 63 54 50 43 46 53 54
19 20 20 21 20 21 22 22 21 22 21 22 22 23 23 23 23 26 26 28 30 33 36 38 41 44 47 52 55 56 58 58 62 71 79 87 93 94 96 86 77 65 55 48 46 41 36 44 50
21 21 22 23 23 23 23 23 23 23 22 22 23 24 24 24 25 27 28 29 33 36 39 41 43 46 49 54 57 58 60 63 67 76 84 92 94 96 89 82 68 56 48 44 42 41 34 36 45
23 22 23 22 23 24 25 21 22 21 23 23 25 26 25 25 26 28 29 31 35 39 41 43 46 48 51 55 57 59 61 62 72 80 88 90 92 91 86 73 59 49 44 41 41 40 40 30 38
23 21 23 23 25 25 25 21 23 21 22 24 25 26 25 26 28 29 31 33 37 40 42 44 46 49 53 56 57 59 61 67 75 83 89 92 92 89 78 66 54 49 44 43 40 39 36 34 29
23 24 26 26 27 27 27 24 24 23 23 25 26 26 26 27 29 30 33 36 39 42 43 45 47 51 54 56 57 59 63 69 77 84 87 88 89 87 71 58 52 48 45 42 40 39 37 31 31
28 29 28 28 29 30 28 27 25 24 24 26 28 28 28 28 31 32 34 38 40 41 43 44 48 52 54 55 58 60 64 72 78 84 86 89 87 82 66 56 52 45 41 40 40 39 38 31 28
33 31 31 30 31 31 31 26 28 26 24 28 29 30 29 30 32 33 35 39 40 41 42 45 48 51 54 56 58 60 67 72 78 84 86 88 83 78 65 56 48 43 42 40 39 39 36 28 25
32 32 32 34 33 33 33 26 26 28 25 29 29 30 31 32 33 34 36 39 40 41 42 44 47 50 52 54 56 61 67 73 79 82 82 81 81 72 63 58 49 41 41 42 40 42 37 27 21
28 30 32 34 33 33 32 24 26 26 25 27 28 30 31 33 34 35 37 39 39 40 42 44 47 48 52 52 55 61 66 70 75 75 79 79 78 69 62 59 51 43 41 42 42 39 38 28 18
31 29 30 31 33 31 30 21 19 22 25 26 30 29 30 32 34 36 38 37 37 39 41 43 45 48 50 52 54 60 64 68 73 74 77 75 75 66 61 59 53 45 41 42 40 35 40 32 13
32 30 31 29 31 31 27 25 7 16 23 30 29 29 29 31 33 35 36 36 35 37 40 42 44 47 48 49 52 58 63 67 70 71 73 73 73 63 58 58 54 47 43 41 37 34 39 36 13
31 31 32 33 30 28 24 23 1 15 23 27 29 29 29 30 32 36 35 34 34 36 39 41 44 47 47 47 51 57 61 66 67 68 70 71 70 61 58 56 56 50 44 40 36 35 34 33 22
31 31 33 35 31 28 23 20 10 18 26 26 28 28 29 30 32 35 35 33 33 36 39 42 45 47 47 46 50 55 59 63 65 66 67 69 67 61 56 56 54 54 45 45 40 37 34 30 26
33 31 32 38 35 32 23 18 10 20 24 25 28 29 30 31 32 34 33 31 31 35 40 42 47 46 45 46 49 53 57 61 64 64 66 68 65 62 54 55 55 53 49 47 41 39 33 29 25
28 30 33 37 39 38 27 18 11 20 24 25 28 31 31 32 32 33 33 31 31 34 38 43 47 45 43 45 48 52 56 60 62 62 63 66 65 62 57 52 55 54 51 48 44 46 39 30 23
33 33 35 37 44 40 31 19 15 22 25 28 31 32 33 32 31 32 31 28 30 35 38 44 45 42 42 44 47 51 55 57 60 61 63 64 65 61 58 52 51 55 54 50 47 52 38 20 15
35 34 35 37 42 43 41 15 16 24 30 30 30 32 32 28 27 28 26 26 30 35 40 44 43 40 40 42 46 50 53 56 58 59 61 63 64 60 58 53 49 50 54 52 49 50 37 19 12
39 36 37 40 40 45 43 15 19 21 27 33 34 30 30 29 26 27 27 29 32 37 41 42 41 40 38 40 44 49 52 55 57 59 61 62 63 59 58 55 51 48 50 53 50 46 39 20 17
Wind_Direction
12 13 308 4 1 357 352 3 4 8 15 21 18 11 16 15 13 13 9 9 5 1 359 3 4 4 4 2 357 351 354 351 347 339 338 339 336 334 331 323 309 306 307 303 301 294 280 270 271
321 330 313 343 312 347 322 330 1 3 7 13 11 8 5 3 359 360 360 356 357 356 355 356 359 357 354 350 351 350 344 343 342 336 326 323 327 324 325 327 313 304 307 308 296 292 283 272 264
296 314 300 279 254 298 301 315 335 343 358 7 4 4 359 349 353 353 351 351 351 350 349 348 350 347 345 346 341 339 336 331 331 337 332 326 323 326 322 320 317 306 299 299 301 298 291 277 267
279 309 304 303 292 265 270 295 309 322 345 353 356 355 346 344 352 352 347 348 344 341 339 338 337 333 334 336 333 335 333 333 331 334 327 321 325 320 320 320 315 312 304 297 293 293 294 286 269
282 294 290 292 304 292 273 284 294 309 326 336 330 337 339 338 348 342 339 339 336 336 332 332 327 326 325 329 331 333 332 333 330 329 327 325 323 321 319 320 316 311 307 300 293 286 287 287 282
288 297 301 310 298 286 287 294 295 296 301 311 315 324 327 329 334 333 334 330 329 326 324 323 322 319 326 324 328 330 329 331 327 325 324 324 321 318 318 316 311 307 304 302 296 290 280 279 279
280 287 301 298 282 281 285 295 295 293 295 301 311 314 312 316 320 327 326 322 322 320 320 319 317 318 320 321 323 326 326 327 326 324 324 322 320 320 317 313 309 306 303 303 296 288 280 275 273
277 280 281 275 273 277 281 288 290 291 295 297 302 301 301 307 314 318 320 313 317 315 316 317 317 321 321 323 323 324 324 325 325 320 324 324 320 319 317 312 308 308 308 303 293 282 275 266 262
266 262 271 284 291 293 293 290 286 294 291 293 298 298 301 305 306 308 314 310 311 312 310 313 317 322 322 323 324 325 324 325 322 323 325 320 317 315 313 311 313 312 307 299 292 280 266 258 254
257 259 267 279 292 295 292 294 299 295 292 289 290 294 296 301 301 303 309 308 306 308 307 311 318 319 321 324 325 326 323 326 322 324 329 328 320 316 314 315 317 315 308 300 291 276 261 253 247
253 254 265 275 285 288 292 298 299 291 287 286 287 291 294 297 300 302 307 307 307 307 310 312 315 318 321 322 323 325 324 324 324 327 331 327 320 316 317 320 321 314 308 303 293 278 265 250 241
261 261 265 271 279 286 293 297 296 296 290 289 288 291 293 296 299 303 305 309 309 310 310 314 316 318 321 322 322 323 325 326 328 333 329 327 319 319 323 326 322 319 313 306 295 281 263 250 240
270 266 268 271 276 284 290 291 294 295 291 290 290 291 293 297 300 301 305 309 309 310 313 316 317 320 322 323 323 325 325 327 327 326 324 322 322 325 327 325 326 321 315 309 300 293 275 251 240
267 268 270 273 278 282 285 293 298 294 291 290 291 291 293 298 299 302 305 308 308 309 314 318 320 321 322 324 325 327 327 330 331 325 324 323 326 330 330 329 328 322 318 313 305 298 289 261 241
270 270 271 275 277 280 286 295 289 293 291 291 288 288 291 295 296 299 302 304 307 311 316 319 320 322 323 324 328 328 331 333 333 327 326 328 331 335 331 332 328 324 322 318 312 303 293 279 250
274 275 275 276 277 283 287 289 288 286 285 287 286 286 290 291 292 296 301 305 309 313 316 318 321 322 324 327 329 330 333 332 331 329 328 331 334 336 335 334 329 325 322 322 316 307 294 288 259
277 277 278 282 284 286 286 285 287 289 289 289 288 288 288 287 290 295 300 307 311 314 316 319 320 323 327 329 328 332 335 333 330 329 331 334 338 336 338 336 332 328 325 322 319 314 301 281 266
276 277 278 281 282 284 287 288 290 290 292 292 289 290 287 290 291 295 302 307 311 313 316 320 321 325 327 328 330 335 334 331 330 330 334 335 340 339 341 339 337 336 332 328 325 320 311 287 262
274 273 273 274 277 280 282 284 285 285 290 285 291 290 291 289 291 295 300 306 310 312 315 318 322 326 327 328 333 335 331 331 330 333 335 337 342 341 343 341 335 337 337 333 331 328 321 295 262
274 272 271 273 276 278 280 281 281 286 283 287 292 291 289 289 291 294 299 306 309 312 316 318 322 326 326 330 333 334 330 331 331 334 338 341 343 342 344 344 337 334 339 337 335 331 331 308 262
277 272 269 273 273 277 281 286 279 281 282 282 286 284 287 289 291 294 299 305 309 313 315 318 323 326 326 330 334 333 331 334 337 339 339 342 344 346 345 345 342 337 336 340 338 336 336 325 277
285 279 270 273 276 278 278 289 274 276 276 277 274 280 284 286 288 292 297 305 310 314 314 318 323 326 327 331 335 333 332 334 336 339 341 345 347 349 347 348 345 342 339 340 339 337 345 337 287
288 282 277 273 277 279 287 290 262 267 270 271 278 278 281 284 288 292 300 304 310 312 314 319 323 326 327 332 333 332 333 335 338 341 344 347 349 350 348 351 349 344 342 340 339 339 342 338 295
284 285 282 278 279 284 292 290 112 272 269 270 273 279 283 287 290 294 298 304 309 311 314 318 324 326 328 331 332 332 334 336 340 342 346 349 350 350 349 350 352 348 347 344 339 337 334 339 327
281 280 284 284 283 285 283 285 302 273 269 270 275 281 286 289 292 294 297 305 309 309 315 317 325 325 327 330 331 331 334 336 340 342 346 351 351 350 349 351 352 351 348 346 339 336 331 328 328
276 281 282 286 283 281 278 293 273 265 272 278 280 282 285 289 292 295 299 306 306 310 316 319 324 324 327 329 330 331 332 337 340 343 347 352 352 352 348 350 353 351 350 346 342 338 333 326 316
275 277 277 280 281 282 291 304 281 270 272 278 278 281 286 289 294 296 302 305 303 310 315 319 323 323 326 328 329 330 333 337 341 344 349 353 353 352 350 346 352 352 352 348 344 338 325 316 308
272 270 274 278 282 283 289 297 299 271 269 276 282 283 287 295 303 307 307 299 303 310 316 319 322 322 325 327 327 330 333 336 340 344 349 353 354 353 352 348 349 354 354 350 347 346 337 313 299
263 268 270 273 279 284 284 297 306 280 283 283 279 281 287 299 303 302 301 302 305 310 316 317 318 321 322 326 327 329 332 335 339 343 348 352 355 353 352 349 346 348 353 353 350 352 352 337 315
264 262 265 272 275 275 282 302 302 298 291 287 286 289 295 301 299 298 303 302 305 311 314 313 316 317 320 322 326 329 331 335 339 344 348 352 354 354 352 350 347 346 349 354 354 352 354 352 342